This is the latest recevied weather packets stored in our database for station/object K1ABC. If no packets are shown the sender has not sent any weather packets the latest 10 day(s).
| Time | Temp. | Humidity | Pressure | Rain* | Wind** | Luminosity | Snow |
|---|---|---|---|---|---|---|---|
| 1778042695 | 18.33° C | 61% | 1008.6 hPa | 0 mm | - | - | - |
| 1778041861 | 18.89° C | 60% | 1008.5 hPa | 0 mm | - | - | - |
| 1778041660 | 18.89° C | 60% | 1008.5 hPa | 0 mm | - | - | - |
| 1778041210 | 18.89° C | 60% | 1008.5 hPa | 0 mm | - | - | - |
| 1778040887 | 18.89° C | 59% | 1008.5 hPa | 0 mm | - | - | - |
| 1778040564 | 18.89° C | 59% | 1008.4 hPa | 0 mm | - | - | - |
| 1778039617 | 19.44° C | 58% | 1008.4 hPa | 0 mm | - | - | - |
| 1778037147 | 20° C | 56% | 1008.3 hPa | 0 mm | - | - | - |
| 1778036209 | 20° C | 56% | 1008.2 hPa | 0 mm | - | - | - |
| 1778036011 | 20° C | 56% | 1008.2 hPa | 0 mm | - | - | - |
| 1778033952 | 21.11° C | 53% | 1008.3 hPa | 0 mm | - | - | - |
| 1778033510 | 21.11° C | 52% | 1008.3 hPa | 0 mm | - | - | - |
| 1778031334 | 21.11° C | 53% | 1008.3 hPa | 0 mm | - | - | - |
| 1778030633 | 21.11° C | 52% | 1008.4 hPa | 0 mm | - | - | - |
| 1778030315 | 21.11° C | 52% | 1008.3 hPa | 0 mm | - | - | - |
| 1778029099 | 21.67° C | 50% | 1007.5 hPa | 0 mm | - | - | - |
| 1778028639 | 21.67° C | 50% | 1007.3 hPa | 0 mm | - | - | - |
| 1778027940 | 22.22° C | 50% | 1006.9 hPa | 0 mm | - | - | - |
| 1778026867 | 22.22° C | 49% | 1006.5 hPa | 0 mm | - | - | - |
| 1778026415 | 22.22° C | 49% | 1006.3 hPa | 0 mm | - | - | - |
| 1778024582 | 23.33° C | 48% | 1005.8 hPa | 0 mm | - | - | - |
| 1778024383 | 23.33° C | 48% | 1005.7 hPa | 0 mm | - | - | - |
| 1778023184 | 23.89° C | 46% | 1005.4 hPa | 0 mm | - | - | - |
| 1778022980 | 23.89° C | 46% | 1005.3 hPa | 0 mm | - | - | - |
| 1778022412 | 24.44° C | 45% | 1005.1 hPa | 0 mm | - | - | - |
* Rain latest hour (hover to see other rain measurements)
** Current wind speed in m/s (hover to see current wind gust speed)